This is the latest recevied weather packets stored in our database for station/object KD7CTY. If no packets are shown the sender has not sent any weather packets the latest 10 day(s).
| Time | Temp. | Humidity | Pressure | Rain* | Wind** | Luminosity | Snow |
|---|---|---|---|---|---|---|---|
| 1777946302 | 22.22° C | 63% | 1008.7 hPa | 0 mm | - | 104 W/m² | - |
| 1777945999 | 21.67° C | 62% | 1008.7 hPa | 0 mm | - | 51 W/m² | - |
| 1777945696 | 22.22° C | 62% | 1008.6 hPa | 0 mm | - | 119 W/m² | - |
| 1777945393 | 22.22° C | 61% | 1008.8 hPa | 0 mm | - | 62 W/m² | - |
| 1777945089 | 22.22° C | 62% | 1008.6 hPa | 0 mm | - | 153 W/m² | - |
| 1777944787 | 22.22° C | 60% | 1009 hPa | 0 mm | - | 180 W/m² | - |
| 1777944485 | 22.78° C | 59% | 1008.6 hPa | 0 mm | - | 187 W/m² | - |
| 1777944182 | 22.78° C | 59% | 1008.7 hPa | 0 mm | - | 212 W/m² | - |
| 1777943878 | 22.78° C | 60% | 1009.1 hPa | 0 mm | - | 237 W/m² | - |
| 1777943575 | 22.78° C | 58% | 1009.1 hPa | 0 mm | - | 258 W/m² | - |
| 1777943270 | 22.78° C | 57% | 1008.7 hPa | 0 mm | - | 267 W/m² | - |
| 1777942967 | 22.78° C | 57% | 1008.8 hPa | 0 mm | - | 286 W/m² | - |
| 1777942663 | 22.78° C | 57% | 1009 hPa | 0 mm | - | 308 W/m² | - |
| 1777942361 | 23.33° C | 56% | 1009 hPa | 0 mm | - | 325 W/m² | - |
| 1777942058 | 23.33° C | 56% | 1008.6 hPa | 0 mm | - | 336 W/m² | - |
| 1777941754 | 23.89° C | 55% | 1009 hPa | 0 mm | - | 355 W/m² | - |
| 1777941451 | 23.89° C | 55% | 1008.7 hPa | 0 mm | - | 361 W/m² | - |
| 1777941149 | 23.89° C | 54% | 1008.6 hPa | 0 mm | - | 380 W/m² | - |
| 1777940845 | 23.89° C | 54% | 1008.8 hPa | 0 mm | - | 423 W/m² | - |
| 1777940542 | 23.33° C | 54% | 1008.7 hPa | 0 mm | - | 426 W/m² | - |
| 1777940240 | 23.89° C | 54% | 1008.8 hPa | 0 mm | - | 448 W/m² | - |
| 1777939937 | 23.89° C | 54% | 1008.8 hPa | 0 mm | - | 441 W/m² | - |
| 1777939634 | 24.44° C | 52% | 1009 hPa | 0 mm | - | 448 W/m² | - |
| 1777939332 | 23.89° C | 53% | 1009 hPa | 0 mm | - | 462 W/m² | - |
| 1777939028 | 23.89° C | 54% | 1008.7 hPa | 0 mm | - | 475 W/m² | - |
* Rain latest hour (hover to see other rain measurements)
** Current wind speed in m/s (hover to see current wind gust speed)